NWS Melbourne » East Central Florida Hourly Weather Roundup

ASUS42 KMLB 190411
RWRMLB
HOURLY WEATHER ROUNDUP AROUND FLORIDA
NATIONAL WEATHER SERVICE OFFICE MELBOURNE FL
1200 AM EDT SUN APR 19 2015
  
CITY           SKY/WX    TMP DP  RH WIND       PRES   REMARKS
MELBOURNE      MOCLDY    77  71  82 CALM      29.98S                  
FORT PIERCE    CLOUDY    73  71  93 CALM      29.98F                  
ORLANDO INTL   CLOUDY    79  72  79 NW5       29.98F                  
DAYTONA BEACH  CLOUDY    77  74  90 CALM      29.98F                  
VERO BEACH     PTCLDY    73  70  90 CALM      29.97F                  
$$
...ELSEWHERE ACROSS CENTRAL FLORIDA...
  
CITY           SKY/WX    TMP DP  RH WIND       PRES   REMARKS
PATRICK AFB    MOCLDY    79  74  83 SW7       29.97F                  
KSC            CLOUDY    75  73  93 VRB1      29.97S                  
CAPE CANAVERAL CLOUDY    75  74  94 S2        29.97S                  
ORLANDO EXEC   CLOUDY    79  70  74 NW3       29.98F                  
LEESBURG       MOCLDY    75  71  87 NW3       29.99F                  
THE VILLAGES     N/A     73  73 100 CALM      29.88F                  
SANFORD        CLOUDY    77  70  79 CALM      29.98S                  
DELAND           N/A    N/A N/A N/A CALM      29.99S                  
WINTER HAVEN   MOCLDY    77  71  82 N3        30.00F                  
OKEECHOBEE     MOCLDY    72  70  94 CALM      29.99F                  
TAMPA          CLOUDY    77  71  82 CALM      29.98F                  
$$
...NORTHERN FLORIDA...
  
CITY           SKY/WX    TMP DP  RH WIND       PRES   REMARKS
PALM COAST     CLOUDY    73  71  94 CALM      29.98F                  
ST AUGUSTINE   MOCLDY    72  70  93 CALM      29.98F                  
OCALA          MOCLDY    72  68  88 CALM      29.98F                  
GAINESVILLE    CLOUDY    73  70  90 CALM      29.97S                  
JACKSONVILLE   CLOUDY    70  69  97 S5        29.96F                  
TALLAHASSEE    CLOUDY    75  73  93 S3        29.96R                  
$$
...ALONG THE SOUTHEAST COAST TO THE KEYS...
  
CITY           SKY/WX    TMP DP  RH WIND       PRES   REMARKS
STUART         PTCLDY    73  70  88 CALM      30.00S                  
WEST PALM BCH  TSTM      79  71  76 W5        30.00S                  
MIAMI          PTCLDY    80  68  66 S5        30.00S                  
KEY WEST       PTCLDY    80  74  81 SE8       30.00S                  
$$
...MARINE REPORTS...
  
STATION/POSITION TIME  TEMP    WIND        PRES    WAVE   SWELL
                       AIR SEA DIR/SP/G            HT/PER HT/PER/DIR
                 (UTC) (F)     (DEG/KT/KT) (MB)    (FT/S) (FT/S/D)
ST AUGUSTINE FP  0400   72 72  130/  3/  3 1015.7F
20NM E CAPE CANA 0320   79 80  170/ 10/ 10 1015.4
120 E NEW SMYRNA 0350   78 79  150/  6/  6 1015.5F   4/ 9   3/ 60/ 9
TRIDENT PIER     0348   77 79  110/  2/  3 1015.5F
SEBASTIAN INLET  0400   75     210/  4     1016.0
4NM E PORT CANAV 0339      78                N/A     2/ 9
6NM NE FPR INLET 0351      78                N/A     3/11   2/ 50/11
SETTLEMENT PT GB 0400   80     190/  9/ 10 1016.5F
$$
 


USA.gov is the U.S. government's official web portal to all federal, state and local government web resources and services.